* Astronomy

Members Login
Post Info TOPIC: Asteroid 2010 NG3


L

Posts: 131433
Date:
Asteroid 2010 NG3
Permalink  
 


Orbital elements:
2010 NG3 Earth MOID = 0.1418 AU
Epoch 2010 July 23.0 TT = JDT 2455400.5 MPC
M 23.06649 (2000.0) P Q
n 0.23846856 Peri. 193.98082 -0.23098619 +0.88427513
a 2.5754233 Node 64.03756 -0.84366615 +0.02573270
e 0.5553344 Incl. 26.83288 -0.48463678 -0.46625671
P 4.13 H 17.1 G 0.15 U 7

MPEC 2010 - O07


__________________
Page 1 of 1  sorted by
 
Quick Reply

Please log in to post quick replies.



Create your own FREE Forum
Report Abuse
Powered by ActiveBoard